Wetterdaten: aktuell Samstag, 04.07.2020 12:00
Datum Zeit Temperatur Luftfeuchte Luftdruck Regen Wind Richtung Richtung Sonnenschein UV-Index Solar Taupunkt Windchill Windben
04.07.2020 12:00 19,3 C 61 % 1016,1 hPa 0,0 l/m 6,4 km/h (2 Bft) SW 225 15 min 7 UV-I 868 W/m 11,6 C 19,3 C 11,3 km/h (2 Bft)
04.07.2020 11:45 19,0 C 64 % 1016,1 hPa 0,0 l/m 4,8 km/h (1 Bft) SW 225 15 min 7 UV-I 846 W/m 12,0 C 19,0 C 12,9 km/h (3 Bft)
04.07.2020 11:30 18,7 C 64 % 1016,2 hPa 0,0 l/m 6,4 km/h (2 Bft) S-SW 202 15 min 7 UV-I 824 W/m 11,7 C 18,7 C 11,3 km/h (2 Bft)
04.07.2020 11:15 18,4 C 65 % 1016,2 hPa 0,0 l/m 6,4 km/h (2 Bft) SW 225 15 min 6 UV-I 796 W/m 11,7 C 18,4 C 11,3 km/h (2 Bft)
04.07.2020 11:00 18,2 C 67 % 1016,4 hPa 0,0 l/m 4,8 km/h (1 Bft) S-SW 202 15 min 6 UV-I 773 W/m 12,0 C 18,2 C 9,7 km/h (2 Bft)
04.07.2020 10:45 17,6 C 71 % 1016,3 hPa 0,0 l/m 3,2 km/h (1 Bft) S-SW 202 15 min 5 UV-I 745 W/m 12,3 C 17,6 C 9,7 km/h (2 Bft)
04.07.2020 10:30 16,9 C 71 % 1016,4 hPa 0,0 l/m 4,8 km/h (1 Bft) SW 225 15 min 5 UV-I 712 W/m 11,6 C 16,9 C 8,0 km/h (2 Bft)
04.07.2020 10:15 16,3 C 75 % 1016,6 hPa 0,0 l/m 3,2 km/h (1 Bft) SW 225 15 min 4 UV-I 677 W/m 11,9 C 16,3 C 8,0 km/h (2 Bft)
04.07.2020 10:00 16,0 C 77 % 1016,6 hPa 0,0 l/m 1,6 km/h (1 Bft) S-SW 202 15 min 3 UV-I 642 W/m 12,0 C 16,0 C 6,4 km/h (2 Bft)
04.07.2020 09:45 15,7 C 78 % 1016,7 hPa 0,0 l/m 1,6 km/h (1 Bft) S-SW 202 15 min 3 UV-I 605 W/m 11,9 C 15,7 C 4,8 km/h (1 Bft)
04.07.2020 09:30 15,4 C 80 % 1016,8 hPa 0,0 l/m 1,6 km/h (1 Bft) S-SW 202 15 min 2 UV-I 566 W/m 12,0 C 15,4 C 6,4 km/h (2 Bft)
04.07.2020 09:15 15,4 C 80 % 1017,0 hPa 0,0 l/m 0,0 km/h (0 Bft) SO 135 15 min 2 UV-I 527 W/m 12,0 C 15,4 C 4,8 km/h (1 Bft)
04.07.2020 09:00 15,6 C 80 % 1017,2 hPa 0,0 l/m 1,6 km/h (1 Bft) O 90 15 min 2 UV-I 487 W/m 12,2 C 15,6 C 6,4 km/h (2 Bft)
04.07.2020 08:45 15,2 C 80 % 1017,2 hPa 0,0 l/m 1,6 km/h (1 Bft) O 90 15 min 1 UV-I 468 W/m 11,8 C 15,2 C 4,8 km/h (1 Bft)
04.07.2020 08:30 14,4 C 83 % 1017,2 hPa 0,0 l/m 1,6 km/h (1 Bft) O-NO 67 15 min 1 UV-I 522 W/m 11,5 C 14,4 C 4,8 km/h (1 Bft)
04.07.2020 08:15 13,7 C 84 % 1017,3 hPa 0,0 l/m 0,0 km/h (0 Bft) O-NO 67 15 min 0 UV-I 236 W/m 11,0 C 13,7 C 3,2 km/h (1 Bft)
04.07.2020 08:00 13,4 C 86 % 1017,3 hPa 0,0 l/m 0,0 km/h (0 Bft) O-NO 67 15 min 0 UV-I 178 W/m 11,1 C 13,4 C 3,2 km/h (1 Bft)
04.07.2020 07:45 13,1 C 84 % 1017,2 hPa 0,0 l/m 1,6 km/h (1 Bft) O-NO 67 0 min 0 UV-I 127 W/m 10,5 C 13,1 C 4,8 km/h (1 Bft)
04.07.2020 07:30 12,9 C 84 % 1017,2 hPa 0,0 l/m 0,0 km/h (0 Bft) O-NO 67 0 min 0 UV-I 127 W/m 10,3 C 12,9 C 4,8 km/h (1 Bft)
04.07.2020 07:15 13,1 C 86 % 1017,1 hPa 0,0 l/m 0,0 km/h (0 Bft) O-NO 67 0 min 0 UV-I 88 W/m 10,8 C 13,1 C 4,8 km/h (1 Bft)
04.07.2020 07:00 12,9 C 85 % 1017,1 hPa 0,0 l/m 0,0 km/h (0 Bft) N 0 0 min 0 UV-I 67 W/m 10,4 C 12,9 C 0,0 km/h (0 Bft)
04.07.2020 06:45 12,9 C 86 % 1016,9 hPa 0,0 l/m 3,2 km/h (1 Bft) O-NO 67 0 min 0 UV-I 49 W/m 10,6 C 12,9 C 6,4 km/h (2 Bft)
04.07.2020 06:30 12,8 C 84 % 1016,7 hPa 0,0 l/m 4,8 km/h (1 Bft) NO 45 0 min 0 UV-I 33 W/m 10,2 C 12,8 C 12,9 km/h (3 Bft)
04.07.2020 06:15 12,8 C 82 % 1016,7 hPa 0,0 l/m 6,4 km/h (2 Bft) N 360 0 min 0 UV-I 26 W/m 9,8 C 12,8 C 14,5 km/h (3 Bft)
04.07.2020 06:00 12,9 C 82 % 1016,7 hPa 0,0 l/m 1,6 km/h (1 Bft) N 360 0 min 0 UV-I 16 W/m 9,9 C 12,9 C 8,0 km/h (2 Bft)
04.07.2020 05:45 12,9 C 81 % 1016,6 hPa 0,0 l/m 4,8 km/h (1 Bft) N-NO 22 0 min 0 UV-I 7 W/m 9,7 C 12,9 C 11,3 km/h (2 Bft)
04.07.2020 05:30 13,0 C 80 % 1016,4 hPa 0,0 l/m 4,8 km/h (1 Bft) N-NO 22 0 min 0 UV-I 0 W/m 9,6 C 13,0 C 11,3 km/h (2 Bft)
04.07.2020 05:15 12,8 C 82 % 1016,2 hPa 0,0 l/m 1,6 km/h (1 Bft) NO 45 0 min 0 UV-I 0 W/m 9,8 C 12,8 C 6,4 km/h (2 Bft)
04.07.2020 05:00 13,1 C 82 % 1016,2 hPa 0,0 l/m 3,2 km/h (1 Bft) NO 45 0 min 0 UV-I 0 W/m 10,1 C 13,1 C 8,0 km/h (2 Bft)
04.07.2020 04:45 13,2 C 82 % 1016,2 hPa 0,0 l/m 1,6 km/h (1 Bft) NO 45 0 min 0 UV-I 0 W/m 10,2 C 13,2 C 4,8 km/h (1 Bft)
04.07.2020 04:30 13,2 C 82 % 1016,1 hPa 0,0 l/m 3,2 km/h (1 Bft) NO 45 0 min 0 UV-I 0 W/m 10,2 C 13,2 C 11,3 km/h (2 Bft)
04.07.2020 04:15 13,2 C 80 % 1016,2 hPa 0,0 l/m 4,8 km/h (1 Bft) O 90 0 min 0 UV-I 0 W/m 9,8 C 13,2 C 11,3 km/h (2 Bft)
04.07.2020 04:00 13,3 C 83 % 1016,1 hPa 0,0 l/m 3,2 km/h (1 Bft) O 90 0 min 0 UV-I 0 W/m 10,5 C 13,3 C 8,0 km/h (2 Bft)
04.07.2020 03:45 13,3 C 83 % 1016,2 hPa 0,0 l/m 3,2 km/h (1 Bft) O 90 0 min 0 UV-I 0 W/m 10,5 C 13,3 C 11,3 km/h (2 Bft)
04.07.2020 03:30 13,6 C 81 % 1016,1 hPa 0,0 l/m 1,6 km/h (1 Bft) O-NO 67 0 min 0 UV-I 0 W/m 10,4 C 13,6 C 6,4 km/h (2 Bft)
04.07.2020 03:15 13,5 C 84 % 1016,1 hPa 0,0 l/m 1,6 km/h (1 Bft) O-NO 67 0 min 0 UV-I 0 W/m 10,8 C 13,5 C 3,2 km/h (1 Bft)
04.07.2020 03:00 13,6 C 83 % 1016,0 hPa 0,0 l/m 1,6 km/h (1 Bft) O-NO 67 0 min 0 UV-I 0 W/m 10,8 C 13,6 C 6,4 km/h (2 Bft)
04.07.2020 02:45 13,7 C 79 % 1015,9 hPa 0,0 l/m 1,6 km/h (1 Bft) O-NO 67 0 min 0 UV-I 0 W/m 10,1 C 13,7 C 6,4 km/h (2 Bft)
04.07.2020 02:30 13,7 C 83 % 1015,9 hPa 0,0 l/m 3,2 km/h (1 Bft) O-NO 67 0 min 0 UV-I 0 W/m 10,9 C 13,7 C 11,3 km/h (2 Bft)
04.07.2020 02:15 13,7 C 79 % 1015,8 hPa 0,0 l/m 3,2 km/h (1 Bft) O-NO 67 0 min 0 UV-I 0 W/m 10,1 C 13,7 C 9,7 km/h (2 Bft)
04.07.2020 02:00 13,9 C 78 % 1015,9 hPa 0,0 l/m 3,2 km/h (1 Bft) NO 45 0 min 0 UV-I 0 W/m 10,1 C 13,9 C 6,4 km/h (2 Bft)
04.07.2020 01:45 14,2 C 82 % 1016,0 hPa 0,0 l/m 0,0 km/h (0 Bft) NO 45 0 min 0 UV-I 0 W/m 11,2 C 14,2 C 3,2 km/h (1 Bft)
04.07.2020 01:30 14,3 C 84 % 1016,0 hPa 0,0 l/m 1,6 km/h (1 Bft) NO 45 0 min 0 UV-I 0 W/m 11,6 C 14,3 C 6,4 km/h (2 Bft)
04.07.2020 01:15 14,6 C 83 % 1015,9 hPa 0,0 l/m 1,6 km/h (1 Bft) NO 45 0 min 0 UV-I 0 W/m 11,7 C 14,6 C 6,4 km/h (2 Bft)
04.07.2020 01:00 14,9 C 77 % 1016,0 hPa 0,0 l/m 0,0 km/h (0 Bft) N 360 0 min 0 UV-I 0 W/m 10,9 C 14,9 C 3,2 km/h (1 Bft)
04.07.2020 00:45 15,1 C 77 % 1016,3 hPa 0,0 l/m 0,0 km/h (0 Bft) N 360 0 min 0 UV-I 0 W/m 11,1 C 15,1 C 4,8 km/h (1 Bft)
04.07.2020 00:30 15,1 C 79 % 1016,3 hPa 0,0 l/m 1,6 km/h (1 Bft) N 360 0 min 0 UV-I 0 W/m 11,5 C 15,1 C 6,4 km/h (2 Bft)
04.07.2020 00:15 15,2 C 76 % 1016,3 hPa 0,0 l/m 3,2 km/h (1 Bft) N 360 0 min 0 UV-I 0 W/m 11,0 C 15,2 C 8,0 km/h (2 Bft)
04.07.2020 00:00 15,1 C 78 % 1016,2 hPa 0,0 l/m 6,4 km/h (2 Bft) N 360 0 min 0 UV-I 0 W/m 11,3 C 15,1 C 14,5 km/h (3 Bft)
03.07.2020 23:45 15,2 C 80 % 1016,1 hPa 0,0 l/m 3,2 km/h (1 Bft) O-NO 67 0 min 0 UV-I 0 W/m 11,8 C 15,2 C 8,0 km/h (2 Bft)
03.07.2020 23:30 15,2 C 84 % 1015,9 hPa 0,0 l/m 0,0 km/h (0 Bft) O-NO 67 0 min 0 UV-I 0 W/m 12,5 C 15,2 C 3,2 km/h (1 Bft)
03.07.2020 23:15 15,4 C 84 % 1015,8 hPa 0,0 l/m 0,0 km/h (0 Bft) O-NO 67 0 min 0 UV-I 0 W/m 12,7 C 15,4 C 8,0 km/h (2 Bft)
03.07.2020 23:00 15,8 C 75 % 1015,5 hPa 0,0 l/m 6,4 km/h (2 Bft) N 360 0 min 0 UV-I 0 W/m 11,4 C 15,8 C 14,5 km/h (3 Bft)
03.07.2020 22:45 15,8 C 75 % 1015,4 hPa 0,0 l/m 3,2 km/h (1 Bft) N 360 0 min 0 UV-I 0 W/m 11,4 C 15,8 C 11,3 km/h (2 Bft)
03.07.2020 22:30 15,8 C 79 % 1015,3 hPa 0,0 l/m 1,6 km/h (1 Bft) W-NW 292 0 min 0 UV-I 0 W/m 12,2 C 15,8 C 6,4 km/h (2 Bft)
03.07.2020 22:15 15,9 C 81 % 1015,2 hPa 0,0 l/m 1,6 km/h (1 Bft) S 180 0 min 0 UV-I 0 W/m 12,6 C 15,9 C 6,4 km/h (2 Bft)
03.07.2020 22:00 15,7 C 82 % 1015,1 hPa 0,0 l/m 0,0 km/h (0 Bft) S 180 0 min 0 UV-I 0 W/m 12,6 C 15,7 C 3,2 km/h (1 Bft)
03.07.2020 21:45 15,8 C 81 % 1014,9 hPa 0,0 l/m 1,6 km/h (1 Bft) S 180 0 min 0 UV-I 0 W/m 12,5 C 15,8 C 3,2 km/h (1 Bft)
03.07.2020 21:30 15,8 C 81 % 1014,7 hPa 0,0 l/m 0,0 km/h (0 Bft) N 0 0 min 0 UV-I 0 W/m 12,5 C 15,8 C 0,0 km/h (0 Bft)
03.07.2020 21:15 16,0 C 80 % 1014,3 hPa 0,0 l/m 0,0 km/h (0 Bft) S 180 0 min 0 UV-I 0 W/m 12,5 C 16,0 C 3,2 km/h (1 Bft)
03.07.2020 21:00 16,1 C 78 % 1014,1 hPa 0,0 l/m 0,0 km/h (0 Bft) S 180 0 min 0 UV-I 10 W/m 12,3 C 16,1 C 3,2 km/h (1 Bft)
03.07.2020 20:45 15,9 C 78 % 1013,9 hPa 0,0 l/m 1,6 km/h (1 Bft) S 180 0 min 0 UV-I 49 W/m 12,1 C 15,9 C 4,8 km/h (1 Bft)
03.07.2020 20:30 15,9 C 82 % 1013,6 hPa 0,0 l/m 0,0 km/h (0 Bft) S 180 0 min 0 UV-I 42 W/m 12,8 C 15,9 C 6,4 km/h (2 Bft)
03.07.2020 20:15 16,1 C 82 % 1013,5 hPa 0,0 l/m 0,0 km/h (0 Bft) N 0 0 min 0 UV-I 49 W/m 13,0 C 16,1 C 0,0 km/h (0 Bft)
03.07.2020 20:00 16,4 C 79 % 1013,3 hPa 0,0 l/m 0,0 km/h (0 Bft) N 0 0 min 0 UV-I 116 W/m 12,7 C 16,4 C 0,0 km/h (0 Bft)
03.07.2020 19:45 16,2 C 80 % 1013,4 hPa 0,0 l/m 0,0 km/h (0 Bft) O-SO 112 0 min 0 UV-I 95 W/m 12,7 C 16,2 C 1,6 km/h (1 Bft)
03.07.2020 19:30 16,2 C 81 % 1013,3 hPa 0,0 l/m 3,2 km/h (1 Bft) O-SO 112 0 min 0 UV-I 125 W/m 12,9 C 16,2 C 11,3 km/h (2 Bft)
03.07.2020 19:15 16,3 C 78 % 1013,1 hPa 0,0 l/m 6,4 km/h (2 Bft) O-SO 112 0 min 0 UV-I 88 W/m 12,5 C 16,3 C 14,5 km/h (3 Bft)
03.07.2020 19:00 16,5 C 75 % 1012,8 hPa 0,0 l/m 8,0 km/h (2 Bft) SO 135 0 min 0 UV-I 100 W/m 12,1 C 15,7 C 17,7 km/h (3 Bft)
03.07.2020 18:45 17,1 C 70 % 1012,7 hPa 0,0 l/m 14,5 km/h (3 Bft) O-NO 67 0 min 0 UV-I 105 W/m 11,6 C 13,9 C 25,7 km/h (4 Bft)
03.07.2020 18:30 16,6 C 73 % 1012,4 hPa 0,0 l/m 16,1 km/h (3 Bft) O 90 0 min 0 UV-I 105 W/m 11,7 C 12,8 C 30,6 km/h (5 Bft)
03.07.2020 18:15 16,6 C 74 % 1012,1 hPa 0,0 l/m 19,3 km/h (3 Bft) O 90 0 min 0 UV-I 53 W/m 11,9 C 12,0 C 37,0 km/h (5 Bft)
03.07.2020 18:00 17,3 C 76 % 1012,0 hPa 0,2 l/m 6,4 km/h (2 Bft) O 90 0 min 0 UV-I 47 W/m 13,0 C 17,3 C 17,7 km/h (3 Bft)
03.07.2020 17:45 18,6 C 69 % 1011,9 hPa 0,0 l/m 1,6 km/h (1 Bft) W-NW 292 0 min 0 UV-I 53 W/m 12,8 C 18,6 C 4,8 km/h (1 Bft)
03.07.2020 17:30 19,3 C 63 % 1011,8 hPa 0,0 l/m 3,2 km/h (1 Bft) O-NO 67 0 min 0 UV-I 77 W/m 12,1 C 19,3 C 8,0 km/h (2 Bft)
03.07.2020 17:15 19,6 C 60 % 1011,5 hPa 0,0 l/m 11,3 km/h (2 Bft) NO 45 15 min 0 UV-I 199 W/m 11,6 C 17,8 C 20,9 km/h (4 Bft)
03.07.2020 17:00 19,8 C 59 % 1011,3 hPa 0,0 l/m 9,7 km/h (2 Bft) N-NO 22 15 min 1 UV-I 211 W/m 11,6 C 18,5 C 25,7 km/h (4 Bft)
03.07.2020 16:45 21,1 C 55 % 1011,2 hPa 0,0 l/m 6,4 km/h (2 Bft) NO 45 15 min 1 UV-I 193 W/m 11,7 C 21,1 C 16,1 km/h (3 Bft)
03.07.2020 16:30 21,4 C 54 % 1010,9 hPa 0,0 l/m 4,8 km/h (1 Bft) NO 45 15 min 0 UV-I 190 W/m 11,7 C 21,4 C 14,5 km/h (3 Bft)
03.07.2020 16:15 21,8 C 52 % 1010,9 hPa 0,0 l/m 4,8 km/h (1 Bft) N-NO 22 15 min 1 UV-I 169 W/m 11,5 C 21,8 C 17,7 km/h (3 Bft)
03.07.2020 16:00 22,3 C 52 % 1010,7 hPa 0,0 l/m 3,2 km/h (1 Bft) W-NW 292 15 min 2 UV-I 299 W/m 12,0 C 22,3 C 14,5 km/h (3 Bft)
03.07.2020 15:45 22,8 C 49 % 1010,8 hPa 0,0 l/m 4,8 km/h (1 Bft) N 360 15 min 6 UV-I 821 W/m 11,5 C 22,8 C 16,1 km/h (3 Bft)
03.07.2020 15:30 22,2 C 48 % 1010,8 hPa 0,0 l/m 6,4 km/h (2 Bft) N 360 15 min 5 UV-I 744 W/m 10,7 C 22,2 C 17,7 km/h (3 Bft)
03.07.2020 15:15 22,1 C 54 % 1010,9 hPa 0,0 l/m 4,8 km/h (1 Bft) N 360 15 min 6 UV-I 782 W/m 12,3 C 22,1 C 17,7 km/h (3 Bft)
03.07.2020 15:00 21,8 C 55 % 1010,9 hPa 0,0 l/m 6,4 km/h (2 Bft) NW 315 15 min 4 UV-I 485 W/m 12,4 C 21,8 C 19,3 km/h (3 Bft)
03.07.2020 14:45 22,1 C 53 % 1010,9 hPa 0,0 l/m 9,7 km/h (2 Bft) N 360 15 min 7 UV-I 661 W/m 12,1 C 21,0 C 20,9 km/h (4 Bft)
03.07.2020 14:30 22,5 C 52 % 1010,9 hPa 0,0 l/m 9,7 km/h (2 Bft) N 360 15 min 9 UV-I 1195 W/m 12,1 C 21,5 C 24,1 km/h (4 Bft)
03.07.2020 14:15 22,1 C 53 % 1011,1 hPa 0,0 l/m 11,3 km/h (2 Bft) N 360 15 min 10 UV-I 1129 W/m 12,1 C 20,6 C 27,4 km/h (4 Bft)
03.07.2020 14:00 21,8 C 54 % 1011,4 hPa 0,0 l/m 8,0 km/h (2 Bft) N 360 15 min 9 UV-I 1092 W/m 12,1 C 21,2 C 24,1 km/h (4 Bft)
03.07.2020 13:45 21,1 C 54 % 1011,4 hPa 0,0 l/m 12,9 km/h (3 Bft) N 360 15 min 6 UV-I 605 W/m 11,4 C 19,1 C 24,1 km/h (4 Bft)
03.07.2020 13:30 21,3 C 53 % 1011,4 hPa 0,0 l/m 8,0 km/h (2 Bft) N 360 15 min 10 UV-I 1125 W/m 11,3 C 20,7 C 19,3 km/h (3 Bft)
03.07.2020 13:15 21,6 C 55 % 1011,8 hPa 0,0 l/m 8,0 km/h (2 Bft) N 360 15 min 10 UV-I 1085 W/m 12,2 C 21,0 C 24,1 km/h (4 Bft)
03.07.2020 13:00 21,5 C 58 % 1011,7 hPa 0,0 l/m 6,4 km/h (2 Bft) N 360 5 min 10 UV-I 1125 W/m 12,9 C 21,5 C 16,1 km/h (3 Bft)
_ Min-Zeit 06:30 15:30 16:00 - 09:15 - - - - - 05:30 18:15 07:00
Minimum _ 12,7 C 48 % 1010,7 hPa - 0,0 km/h (0 Bft) - - - - - 9,6 C 12,0 C 0,0 km/h (0 Bft)
_ Max-Zeit 15:45 08:00 08:15 18:00 18:15 - - 12:00 13:30 14:30 18:00 15:45 18:15
Maximum _ 22,8 C 86 % 1017,3 hPa 0,2 l/m 19,3 km/h
O (3 Bft)
- - 15 min 10 UV-I 1195 W/m 13,0 C 22,8 C 37,0 km/h
O (5 Bft)
Durchschnitt _ 16,8 C 73 % 1014,5 hPa #0,2 l/m 4,1 km/h (1 Bft) N - #4:15 h 4 UV-I 424 W/m 11,6 C 16,6 C 10,9 km/h (2 Bft)